Wind_Speed
8 9 9 10 12 13 13 13 14 14 13 13 13 13 13 14 14 14 13 12 12 11 10 9 7 6 6 7 8 10 10 10 11 11 11 13 14 14 14 14 14 14 15 16 17 18 18 19 20 20 20 20 20 20 21 21 22 23 24 25 26 27 28 28 29 30 29 29 30 30 31 32 32 32 33 33 32 32 31 32 32 32 33 32 32
5 7 9 10 12 13 13 13 14 14 13 12 12 12 13 13 13 13 12 11 11 10 9 8 6 6 7 8 9 11 11 11 11 12 13 14 15 15 15 15 15 16 17 18 18 18 19 18 18 18 17 17 17 17 17 18 19 20 21 23 24 25 27 29 30 31 32 31 31 32 32 33 33 34 34 34 34 34 34 34 34 35 35 35 35
4 6 8 10 12 14 14 14 14 13 12 12 12 12 12 12 12 11 10 9 9 8 8 7 7 7 8 9 9 10 11 12 12 13 13 15 16 16 16 16 16 17 18 18 18 17 17 16 16 16 16 16 16 16 17 17 18 18 19 20 21 22 24 26 28 30 32 32 32 32 33 34 34 35 35 35 35 35 35 36 36 37 37 37 37
5 5 7 9 12 14 16 16 15 14 13 12 12 12 12 13 12 10 8 7 7 7 8 8 8 8 9 9 9 10 11 13 14 14 14 15 16 16 16 16 16 17 17 17 16 16 16 16 16 17 17 18 18 18 18 18 19 19 19 20 20 21 22 23 25 27 29 30 31 31 32 33 34 35 35 36 36 36 36 37 37 38 38 38 38
8 6 6 8 10 13 15 16 16 15 14 13 11 11 13 14 12 10 9 8 8 8 9 8 8 9 9 9 10 11 12 13 14 14 14 15 15 15 15 15 15 16 15 15 15 15 16 17 17 18 18 19 19 20 20 20 21 21 21 21 22 22 23 23 24 25 26 28 29 30 30 30 32 34 35 36 36 36 37 37 38 39 39 39 39
11 8 4 5 7 9 12 14 16 15 14 12 11 11 13 14 14 12 10 9 10 10 9 9 9 9 9 10 10 11 11 12 12 13 13 13 13 13 13 13 14 14 15 15 15 16 18 19 19 20 20 20 21 21 21 22 22 23 23 23 24 24 24 25 25 26 27 28 28 29 29 29 30 31 32 34 36 36 37 38 38 39 40 40 39
13 12 6 2 2 4 8 12 15 16 13 11 11 12 12 13 15 13 11 10 11 11 10 9 9 8 9 10 10 10 10 10 10 11 11 11 11 11 11 12 13 14 16 16 17 18 19 19 20 20 20 21 21 22 22 23 23 24 24 25 25 26 26 26 27 27 28 29 29 29 29 29 30 29 30 32 34 35 37 37 38 38 39 40 40
13 13 10 7 5 1 4 9 13 15 14 12 12 13 13 13 14 13 11 11 12 11 10 10 9 9 9 9 9 8 8 9 10 11 11 11 11 11 11 11 13 14 16 17 18 18 19 19 19 19 19 20 21 21 22 23 23 23 24 25 25 26 27 28 28 29 29 30 30 30 30 30 30 30 30 31 32 33 35 36 37 37 38 38 39
12 12 11 9 6 5 3 5 8 11 13 12 12 12 13 13 13 12 12 12 11 10 10 10 9 8 8 8 8 8 8 10 11 11 11 10 10 11 11 12 13 14 16 17 17 18 19 19 19 19 19 20 21 21 22 22 22 23 23 24 25 26 27 28 28 29 30 30 31 31 31 31 31 31 31 31 32 33 33 34 35 35 36 36 37
12 11 11 9 7 6 5 4 6 8 10 11 11 11 12 13 13 12 11 11 10 9 9 9 8 8 7 7 7 8 9 11 11 12 11 10 11 12 13 13 14 15 17 18 18 19 19 20 20 20 20 21 21 21 21 22 22 23 23 24 24 25 25 26 27 28 28 29 30 30 30 31 31 31 31 32 32 33 33 33 33 33 33 34 34
11 11 11 9 7 6 6 5 5 6 7 8 9 10 11 12 12 10 9 9 8 8 7 7 7 7 8 8 8 10 11 12 13 14 13 12 11 12 14 15 15 16 18 19 19 19 20 21 21 21 22 22 22 22 22 23 23 24 24 24 25 25 26 26 26 27 27 28 28 28 29 29 30 31 31 31 33 34 33 31 30 30 30 31 31
10 10 10 9 7 6 6 6 6 6 5 4 5 6 7 8 8 8 8 8 7 6 6 7 7 8 9 10 10 12 13 14 15 15 15 14 13 13 14 16 17 17 18 20 20 20 21 22 22 22 23 23 23 23 23 24 24 25 25 25 25 26 26 26 27 27 27 28 28 28 28 28 29 29 30 30 32 33 33 31 30 28 28 27 26
10 9 9 8 7 5 4 5 6 6 6 4 3 4 5 6 6 6 7 7 7 6 7 8 8 9 10 11 12 13 14 16 17 17 17 16 15 15 16 18 19 19 19 19 20 21 21 21 22 23 24 24 24 24 24 25 25 25 25 25 25 26 26 26 27 27 27 28 28 28 28 29 29 29 29 28 28 30 31 31 30 28 26 24 22
9 9 9 8 6 5 3 2 2 3 4 3 3 4 5 5 6 7 7 8 8 8 8 8 9 10 11 12 13 14 15 17 18 19 19 19 17 17 18 19 20 20 20 20 20 20 21 21 22 24 25 25 25 24 24 24 25 25 25 25 25 25 26 26 26 27 27 27 28 28 29 29 29 29 28 27 26 28 28 27 27 26 24 21 20
9 10 9 8 7 6 5 4 2 1 1 2 3 4 5 6 7 8 8 9 9 9 9 10 10 11 12 13 14 15 16 17 18 19 19 19 18 17 17 18 20 21 21 20 19 19 20 20 21 23 25 25 25 24 24 24 24 24 24 24 24 25 25 25 26 26 27 27 28 29 28 27 26 26 25 24 24 25 25 24 24 22 20 19 18
8 9 9 8 8 7 7 6 5 5 5 5 5 6 7 8 8 9 10 10 11 12 12 12 13 13 14 14 15 15 16 16 17 18 18 18 17 17 17 18 19 20 20 19 18 18 19 20 22 23 24 24 24 23 23 22 22 22 23 23 23 24 24 25 25 26 27 28 28 26 25 23 22 21 21 20 20 21 22 22 21 20 18 18 17
7 7 7 7 8 8 8 7 7 7 7 8 8 9 10 11 12 13 13 14 15 15 15 15 16 16 16 16 16 16 16 16 16 17 17 17 17 17 17 18 19 19 19 18 18 18 20 21 22 23 23 23 22 22 21 20 20 21 21 22 22 22 23 24 25 26 27 26 24 21 20 19 18 17 16 16 15 16 17 18 18 17 17 16 16
6 6 5 5 6 7 8 8 8 8 8 9 10 11 13 14 15 16 16 17 17 17 18 18 19 19 18 18 17 17 16 16 16 16 17 17 17 17 17 18 19 20 18 18 18 20 21 22 22 22 21 20 20 20 19 19 19 19 20 20 21 21 23 24 25 25 24 21 19 17 16 15 14 13 12 11 11 12 13 14 14 14 14 14 14
7 6 5 5 6 7 8 8 8 8 9 9 10 11 13 14 15 17 17 18 18 19 20 20 21 21 20 19 18 17 16 16 16 16 17 17 17 17 17 18 19 20 19 18 19 21 21 22 22 21 19 18 17 17 17 17 17 18 18 19 20 21 22 23 23 21 18 16 14 13 13 12 11 9 7 7 7 8 10 11 11 12 12 12 12
8 7 7 8 9 10 9 9 9 9 10 11 12 12 13 14 15 16 17 18 18 19 21 22 22 22 21 19 18 17 17 16 16 17 17 17 17 17 18 18 19 20 19 19 20 21 21 22 21 18 16 15 15 16 16 16 16 16 17 18 20 21 22 21 18 16 14 12 11 10 9 8 7 5 4 4 4 6 8 9 10 10 10 9 8
10 10 11 11 12 12 11 11 11 11 12 13 14 14 15 16 16 17 18 18 19 20 21 21 21 21 20 19 18 18 18 17 17 17 17 18 18 18 18 19 19 19 19 19 21 21 21 21 19 16 14 14 14 14 14 14 14 15 16 18 19 20 19 16 13 12 10 9 8 7 6 5 4 2 2 3 4 5 6 6 6 5 4 3 1
11 12 13 13 13 13 12 12 13 13 14 15 16 17 17 18 18 18 19 19 20 20 20 20 20 20 20 19 19 19 18 17 16 16 17 18 19 19 19 19 19 19 19 19 20 20 20 20 17 15 14 13 13 13 13 13 13 14 15 17 19 19 16 11 9 8 8 6 5 4 4 3 1 1 2 4 4 5 4 4 4 5 5 5 4
11 12 14 15 15 15 14 14 14 15 16 17 18 17 18 18 18 18 18 19 20 20 20 20 20 20 20 19 19 19 18 17 16 16 17 18 19 19 19 19 19 19 19 19 19 19 19 18 15 14 13 12 12 13 13 12 12 13 14 17 18 16 11 7 6 6 5 4 3 2 1 1 2 3 5 6 7 8 9 9 9 9 8 7 6
12 14 15 16 17 16 16 15 15 16 18 18 18 17 16 16 17 17 17 18 19 19 20 21 21 21 21 20 19 18 17 17 17 16 17 17 18 18 18 18 18 19 18 18 18 19 19 17 14 13 12 12 12 12 12 11 11 12 14 16 15 12 8 5 4 4 3 2 1 1 1 3 5 7 9 10 11 11 11 11 10 9 8 7 6
12 14 15 16 16 16 16 16 16 18 18 18 17 16 15 15 16 16 17 17 18 19 20 21 21 22 21 20 19 18 18 18 18 18 17 17 17 17 17 17 18 19 18 17 18 18 18 16 14 13 12 11 12 12 11 10 11 12 13 14 12 8 5 3 3 4 3 2 2 2 5 7 9 10 11 11 11 10 10 9 8 7 6 5 5
12 13 13 14 15 15 16 17 17 18 19 19 18 17 16 16 16 16 17 17 18 19 20 21 21 20 19 18 18 19 19 20 20 19 18 17 16 16 16 16 17 18 18 17 17 17 16 15 13 12 12 11 12 11 10 10 10 11 13 12 9 6 4 2 3 4 3 3 4 7 9 10 10 10 10 9 9 8 7 6 5 4 3 3 3
13 12 13 14 15 16 16 17 18 19 19 19 19 19 19 18 17 17 17 17 18 19 20 20 20 18 17 17 18 20 22 22 21 20 19 17 16 16 15 14 15 17 17 17 18 16 14 13 12 12 12 11 11 10 9 9 9 11 11 10 6 4 3 1 3 4 6 8 9 11 11 10 9 9 8 7 7 6 5 4 4 3 3 2 2
17 16 16 15 16 16 17 17 18 19 20 20 19 19 20 19 18 18 18 18 18 19 19 20 20 19 18 18 19 21 22 21 20 19 18 17 16 15 14 13 14 16 17 17 17 15 13 12 12 11 11 11 11 10 9 8 9 10 10 7 4 2 1 1 5 7 10 12 12 11 10 9 8 7 7 6 6 5 5 4 4 3 3 3 2
20 20 19 17 16 16 17 17 17 18 19 19 18 18 19 19 18 18 19 19 18 19 20 20 20 20 20 19 19 20 20 19 19 18 17 16 15 14 13 12 13 15 16 17 17 14 11 11 11 11 11 11 10 9 8 8 8 9 9 6 2 0 1 4 9 13 14 13 11 10 8 7 6 5 6 6 6 5 5 4 3 3 3 3 3
19 19 19 17 15 15 16 16 16 16 17 18 18 18 18 18 18 19 19 19 18 18 20 21 21 22 21 19 19 19 18 18 17 17 15 15 14 13 12 12 13 14 16 16 16 13 11 11 11 10 10 10 10 9 8 7 8 9 8 5 2 2 4 8 13 15 14 12 10 9 7 6 5 5 5 6 5 5 5 4 3 3 3 3 3
19 17 17 16 15 15 14 14 14 14 14 16 17 19 19 20 21 21 21 20 19 20 21 22 22 23 21 19 17 17 17 18 17 16 15 14 14 13 11 11 12 14 15 15 15 13 11 11 11 11 10 10 9 8 8 8 8 8 7 4 3 4 7 12 15 14 13 11 10 8 6 5 5 5 5 5 5 4 4 3 3 3 3 3 3
22 18 17 17 16 15 14 14 13 13 12 13 16 18 20 22 22 21 21 21 21 21 22 21 22 22 22 19 16 14 14 16 18 17 15 14 14 12 10 11 12 13 14 14 14 13 11 11 11 11 11 10 9 8 8 8 8 8 7 5 5 7 11 14 15 13 12 11 9 7 5 5 4 5 5 5 4 4 3 3 3 3 3 3 3
24 21 18 17 18 17 15 14 14 13 12 12 13 15 17 19 20 19 20 21 21 21 21 21 21 21 21 19 16 14 13 15 17 17 15 14 13 11 9 9 11 13 14 13 13 12 11 11 12 12 11 11 10 8 8 8 8 8 7 6 7 9 13 15 14 13 12 10 8 7 5 4 4 5 4 4 4 3 3 2 2 2 3 3 3
23 22 20 18 18 18 17 15 14 13 13 12 12 12 13 15 16 17 18 19 19 20 19 19 19 20 20 19 17 17 16 17 17 16 14 13 12 10 8 8 10 12 13 12 12 12 12 12 12 12 12 11 10 9 8 8 8 8 7 7 9 11 14 15 14 13 12 10 9 7 5 4 4 4 4 3 2 2 1 1 1 2 2 2 3
21 22 22 21 19 17 17 17 15 14 14 13 13 13 13 13 14 14 15 17 18 19 19 19 19 19 20 19 18 18 18 17 16 14 13 12 11 10 8 7 8 11 13 12 11 12 12 12 12 13 13 12 11 10 9 8 8 8 8 8 10 12 14 15 14 13 12 11 9 8 6 5 4 4 4 3 3 2 1 1 1 1 2 3 3
21 20 21 22 22 20 19 18 16 15 15 14 14 14 14 14 14 14 15 16 17 19 20 20 19 20 20 20 20 19 18 18 16 14 12 12 12 11 9 8 8 10 11 12 11 12 12 12 13 13 13 13 12 11 10 9 9 8 9 9 10 13 15 15 14 13 12 11 10 9 8 6 5 5 5 5 4 3 3 2 1 2 2 3 3
21 21 20 20 22 22 21 20 19 18 17 16 16 16 16 16 16 16 17 17 18 19 20 21 21 21 21 21 22 21 20 19 17 15 14 13 12 12 12 10 9 9 11 11 11 12 13 13 13 13 14 13 12 12 11 10 10 9 9 11 12 13 15 15 14 13 13 12 12 11 10 9 7 6 6 6 6 6 5 4 3 2 2 3 3
23 23 22 20 20 20 22 22 22 21 21 20 19 18 18 17 17 18 18 18 19 20 21 21 21 22 21 21 22 23 22 20 18 17 15 12 12 14 16 16 12 10 11 12 12 12 14 14 13 14 14 14 13 13 12 12 11 10 10 11 13 14 15 15 15 14 14 14 13 12 12 11 10 9 8 8 8 8 7 6 4 3 2 3 3
25 25 24 22 20 20 22 24 24 23 22 22 21 20 19 18 18 19 20 21 21 21 21 21 21 22 22 22 22 22 23 21 19 18 16 14 18 22 23 24 22 16 13 14 14 14 14 15 15 14 15 15 14 14 13 13 12 11 10 11 14 15 16 16 16 16 15 15 14 14 13 13 12 11 10 10 10 9 9 8 7 5 4 3 3
28 27 26 25 24 24 25 25 25 24 23 22 22 22 21 19 19 19 22 23 22 21 21 21 21 21 21 22 22 22 23 22 22 21 18 17 21 23 24 29 31 26 21 17 15 14 14 16 17 16 15 16 15 15 14 14 13 13 12 12 14 17 18 17 17 17 17 16 16 15 15 14 13 13 12 12 11 11 11 10 9 7 6 4 4
28 28 29 29 29 29 29 28 26 26 26 25 24 24 23 22 21 21 23 24 23 23 22 22 22 23 23 23 22 22 23 23 24 23 21 20 21 21 22 27 28 27 25 21 17 15 14 14 17 18 17 16 16 16 15 15 15 15 14 13 14 17 19 19 18 18 18 17 17 17 16 16 15 14 14 13 13 13 12 12 11 10 8 7 6
29 29 30 31 30 30 32 32 30 29 29 29 27 27 27 27 26 25 25 25 24 24 24 23 23 24 25 26 25 23 23 23 24 24 23 23 23 23 24 25 23 22 22 21 19 17 14 12 14 17 18 18 17 17 17 16 16 16 16 15 14 16 19 21 21 20 19 18 18 18 18 17 17 16 15 15 15 14 14 13 13 12 11 10 9
35 35 34 34 32 31 30 31 32 33 33 32 32 32 32 32 31 30 29 28 26 26 26 26 26 25 26 27 27 26 25 25 24 25 25 25 25 25 25 24 21 20 19 20 23 22 18 14 13 14 16 18 19 19 18 18 18 18 17 17 16 16 18 21 22 22 21 20 20 19 19 19 18 18 17 17 16 16 15 15 14 14 13 12 12
41 41 41 39 39 37 36 35 36 37 37 37 37 35 35 34 34 33 32 31 29 28 27 27 28 29 29 29 29 29 27 26 26 25 26 26 26 26 26 25 23 20 18 20 27 28 25 23 22 19 17 17 18 20 20 20 20 20 19 19 19 18 18 20 22 24 23 22 22 21 21 20 20 20 19 18 18 17 17 17 16 16 15 14 14
45 46 45 44 44 44 44 44 43 43 43 42 41 40 38 37 36 35 34 33 32 32 31 29 29 31 31 31 31 31 30 28 26 25 26 27 26 26 27 26 26 25 22 22 25 26 27 29 29 25 20 18 18 20 22 23 22 22 21 21 21 20 19 19 21 23 25 24 24 23 22 22 22 21 21 20 20 19 19 19 18 17 17 17 16
46 46 47 47 46 46 47 47 46 46 45 45 45 45 43 42 41 40 40 39 37 36 35 34 32 31 32 33 33 32 31 30 28 26 26 27 27 27 27 27 27 28 27 25 23 23 27 31 30 26 24 22 21 21 23 24 25 24 23 23 22 22 21 20 20 22 24 26 25 24 24 24 24 24 23 23 22 21 21 20 20 19 19 19 18
43 44 44 45 45 45 46 46 47 47 47 47 48 48 47 46 46 45 45 44 42 40 38 36 35 34 34 34 34 32 32 32 30 28 27 27 27 28 28 28 28 28 28 28 26 25 27 28 28 27 27 26 23 23 24 25 27 27 26 24 23 23 23 22 21 21 23 25 26 26 26 26 26 26 25 25 24 23 23 22 22 21 21 20 20
41 42 42 43 43 43 44 45 45 46 47 47 48 48 48 48 47 47 46 45 44 42 40 38 37 36 35 35 35 35 34 33 31 29 28 28 28 29 29 29 29 29 29 29 28 28 27 26 26 27 27 25 23 23 25 27 28 29 28 25 24 25 25 25 24 23 23 24 26 28 28 27 27 26 26 26 26 25 25 24 23 23 22 22 22
43 43 43 44 44 44 45 45 46 46 46 46 47 47 48 48 48 47 47 46 45 43 41 38 37 37 37 36 36 36 36 35 32 30 29 30 30 29 29 30 30 30 30 29 28 28 26 25 26 26 24 23 22 23 26 29 29 28 28 28 27 27 27 27 27 25 24 24 25 27 29 29 28 28 28 27 27 26 26 26 25 24 24 24 24
46 47 47 47 47 47 48 48 48 49 49 48 47 47 47 47 48 47 47 47 46 44 42 40 38 38 38 38 37 37 37 37 35 33 32 32 32 31 31 31 30 30 30 30 30 28 26 26 27 25 22 21 23 24 28 30 28 27 29 30 30 30 29 29 28 27 26 26 26 26 27 28 28 29 30 30 29 29 28 28 28 27 27 27 27
52 52 52 52 52 53 53 53 53 53 53 52 52 51 50 49 48 48 48 48 48 46 44 42 40 38 38 38 37 37 37 36 36 36 35 34 33 33 32 32 31 30 30 30 30 30 28 27 26 25 23 25 27 28 30 30 27 27 29 30 30 31 31 30 29 28 27 27 27 27 27 27 27 28 29 31 31 31 31 31 31 31 31 31 30
Wind_Direction
228 220 214 217 223 225 221 215 210 210 208 210 217 218 218 218 216 213 210 207 201 194 191 191 199 217 232 235 229 228 230 227 225 224 223 226 232 236 240 244 250 255 259 262 264 264 264 264 264 264 264 264 264 265 266 266 265 265 264 263 261 260 260 259 258 258 259 257 255 254 254 253 253 253 252 252 252 252 252 252 252 252 253 254 254
248 242 231 221 223 225 222 218 214 213 212 213 217 218 218 218 217 217 216 212 206 200 197 197 206 223 237 243 240 239 241 239 235 231 229 231 236 240 244 247 252 257 261 264 265 266 266 266 266 266 266 267 267 268 269 270 271 271 271 269 267 265 263 262 261 261 262 261 259 257 256 256 256 256 256 255 255 254 254 254 254 254 255 255 256
292 270 259 243 234 229 223 218 215 215 214 215 219 217 218 222 221 224 226 220 211 207 206 208 216 229 238 243 246 248 250 252 249 244 241 242 245 247 250 252 254 256 257 258 259 258 257 258 259 261 264 266 267 268 268 269 270 272 273 273 273 272 269 267 266 265 265 265 264 261 259 259 259 259 259 259 259 258 257 256 257 257 257 257 257
341 301 278 262 249 236 227 218 212 212 214 217 219 214 217 225 226 228 236 237 231 226 220 217 222 231 239 244 249 252 255 256 257 254 251 251 254 256 257 260 260 258 255 252 251 251 252 254 256 259 262 264 266 268 269 269 270 270 272 273 275 275 274 273 272 270 269 269 269 267 264 261 261 261 261 261 261 261 261 261 261 261 260 259 259
5 338 295 272 260 247 233 221 213 210 211 218 222 213 213 226 236 240 243 253 257 248 234 228 229 235 240 245 249 252 254 255 256 257 256 256 258 260 261 263 262 260 256 253 253 255 258 260 263 265 266 268 269 270 270 270 271 271 271 272 273 274 275 275 275 275 274 274 274 273 271 267 264 263 263 263 263 263 264 264 264 264 264 263 263
20 9 332 279 266 255 240 225 218 214 210 217 225 218 211 220 238 247 250 258 262 254 245 240 240 243 248 251 252 252 254 255 257 260 261 260 260 261 261 261 261 262 262 262 263 264 266 267 268 270 271 271 272 273 273 273 273 273 273 273 273 273 274 275 276 276 276 276 276 276 276 275 272 268 266 264 264 264 264 264 264 264 265 266 266
29 28 26 14 324 260 241 227 222 220 217 221 227 223 214 214 229 245 257 262 261 256 252 250 250 253 257 259 260 258 259 263 265 264 262 260 258 258 258 258 261 265 265 265 266 266 267 267 268 269 270 270 271 271 272 272 273 273 274 274 274 274 275 275 276 277 278 278 278 277 278 278 277 275 272 269 266 265 264 264 264 264 264 265 266
33 34 35 36 43 49 223 223 223 222 222 225 227 226 224 224 235 252 264 263 261 258 257 258 259 260 261 264 265 265 268 269 268 264 261 261 263 265 267 268 270 272 273 273 272 272 271 271 270 270 270 270 270 269 270 270 271 271 272 273 273 273 273 273 274 275 276 278 279 280 281 280 280 279 277 275 272 269 267 265 264 264 265 265 266
29 33 35 36 47 68 113 187 207 213 217 223 230 234 235 238 247 260 263 260 258 259 263 265 265 263 262 262 266 272 273 271 269 269 270 274 281 286 288 287 285 284 283 282 281 280 279 277 276 274 272 271 270 270 270 271 271 271 270 270 270 270 270 270 271 271 272 274 276 278 280 281 281 281 280 279 277 274 272 270 268 266 266 266 266
23 27 31 31 40 67 94 136 173 189 206 219 228 235 238 243 253 259 258 257 258 262 266 267 267 266 265 268 276 282 281 279 279 280 282 288 294 299 299 297 294 291 288 285 284 283 282 281 280 279 277 275 274 274 274 275 276 276 276 276 275 275 274 274 274 274 274 274 275 275 276 278 279 280 281 281 279 276 274 274 273 271 269 269 269
18 22 26 28 31 56 88 113 140 164 190 211 221 230 238 246 253 254 253 256 259 264 268 271 277 281 285 290 294 295 293 292 291 289 289 291 294 298 299 297 294 291 288 287 287 286 286 286 285 284 282 280 280 280 280 280 281 281 282 283 283 283 283 283 283 282 282 281 280 278 277 277 278 279 280 280 280 279 277 276 276 275 273 271 271
9 13 20 25 25 38 73 99 115 129 149 177 202 221 235 242 247 249 252 257 261 268 276 281 286 290 295 301 302 302 301 298 295 292 291 290 292 294 295 294 292 289 287 287 290 291 291 290 289 286 283 282 282 283 283 282 283 283 284 285 286 287 287 288 288 288 287 285 284 283 282 281 280 280 280 280 280 279 278 277 275 275 275 273 272
1 2 7 13 18 27 52 85 105 115 124 139 170 205 226 235 242 247 251 257 262 268 274 279 285 292 298 302 303 302 301 297 294 292 291 291 292 293 294 294 293 292 289 288 290 291 291 290 288 285 283 282 282 282 282 282 283 284 285 286 287 288 289 290 290 290 289 288 287 286 286 284 283 281 280 279 276 274 274 275 274 274 275 276 274
4 4 3 3 1 2 8 39 89 114 128 147 176 203 222 233 241 247 252 259 265 269 275 283 290 295 296 297 298 299 299 298 294 291 289 289 290 291 293 294 294 293 293 291 290 290 289 288 285 283 282 281 280 280 280 281 282 284 286 287 289 290 291 292 293 292 291 290 289 289 288 286 284 281 278 274 271 270 270 270 271 272 274 277 276
10 4 4 6 0 353 340 328 320 295 234 215 220 227 236 244 250 256 260 265 269 273 279 286 290 292 292 292 293 296 298 299 296 291 288 286 287 289 291 293 293 293 293 293 291 289 287 285 282 280 280 280 279 278 279 280 283 285 287 288 290 291 293 295 295 294 293 293 292 292 290 287 283 279 275 271 268 269 268 265 267 271 274 278 277
10 6 5 10 9 5 351 334 317 303 288 272 262 259 259 262 265 268 270 272 274 277 283 288 291 291 290 291 294 297 298 297 296 292 288 287 288 290 293 294 292 293 293 293 290 286 283 281 282 282 282 281 279 277 278 280 284 286 287 289 291 293 295 297 296 296 296 296 295 293 291 288 285 279 274 269 265 266 266 265 267 271 277 279 277
1 6 7 9 9 7 359 347 331 315 301 289 280 277 275 276 278 279 280 279 281 284 289 291 290 289 290 292 295 297 298 297 295 292 289 289 290 292 295 295 293 294 294 290 285 281 281 284 288 290 288 283 278 276 277 281 284 286 288 290 293 296 297 298 298 298 298 298 297 296 294 291 288 282 275 268 263 261 261 262 265 269 274 275 275
337 347 349 348 352 352 350 344 335 323 310 298 290 285 282 282 283 284 283 283 284 286 288 288 287 287 290 293 293 294 296 297 295 292 290 290 291 294 297 296 296 297 295 287 282 282 285 291 297 297 291 282 275 275 277 281 284 286 290 293 295 298 299 299 300 300 299 299 300 299 298 295 291 286 279 271 263 254 251 255 260 266 270 272 274
307 311 315 313 315 321 328 329 322 316 310 304 296 290 287 286 286 286 285 285 286 285 284 283 283 285 288 290 289 291 294 295 294 293 293 293 295 298 300 299 298 298 295 288 285 286 290 297 301 298 289 278 272 273 277 281 285 289 293 296 298 300 301 301 301 299 300 302 305 305 301 298 294 289 282 271 257 242 240 246 253 259 264 269 274
290 290 293 293 292 295 301 308 307 301 298 297 294 292 290 288 287 286 286 286 284 282 281 280 281 283 285 284 283 286 291 293 293 293 294 295 298 302 303 301 299 297 294 289 287 289 294 300 301 295 283 273 269 272 277 281 286 292 295 298 300 302 303 302 300 299 304 308 310 309 304 301 299 294 280 258 236 226 228 235 244 252 260 267 273
281 286 288 286 285 286 287 290 293 291 289 288 287 286 285 284 284 283 283 283 281 281 281 282 282 282 281 279 278 282 288 291 290 291 294 297 300 301 301 300 298 296 292 289 288 290 296 301 299 289 277 269 269 272 277 282 288 294 298 300 303 305 305 303 299 301 308 312 312 310 306 304 303 290 242 209 203 207 215 224 231 235 237 234 219
276 283 285 281 280 282 281 280 282 283 284 284 281 278 277 277 278 279 279 278 278 279 279 281 281 279 277 277 278 282 286 288 288 290 294 297 299 299 299 299 297 293 289 287 287 291 297 300 294 283 272 268 270 273 277 283 290 296 301 303 306 308 307 301 297 303 308 310 310 308 309 317 328 171 170 170 169 167 164 160 153 139 126 118 112
269 274 278 277 276 277 278 278 279 279 282 286 285 280 275 274 274 274 273 272 272 274 275 276 278 277 274 272 275 280 284 284 285 288 292 295 297 298 299 298 296 291 287 285 288 292 297 296 288 276 270 270 272 273 278 285 291 298 303 305 308 310 307 297 291 294 298 301 303 303 327 72 127 138 139 137 134 129 124 119 115 110 104 96 85
270 269 271 272 275 276 276 276 276 278 280 286 289 286 281 277 274 272 270 268 269 270 272 276 280 281 277 270 270 275 277 278 282 286 290 294 296 297 298 298 295 291 287 286 289 293 295 293 283 273 270 271 271 273 279 286 293 301 305 307 310 311 306 289 271 272 274 267 260 249 124 126 131 128 125 124 122 119 116 112 109 103 95 83 69
278 276 275 274 274 275 273 270 271 273 275 279 284 287 285 281 278 275 273 272 272 272 275 280 285 287 279 268 264 267 270 275 282 287 293 297 298 298 298 297 294 290 288 287 289 293 293 287 280 273 271 270 270 273 280 287 296 303 305 307 311 312 308 281 243 239 232 213 202 150 129 126 124 121 121 120 118 116 114 113 110 103 92 77 60
281 276 273 271 270 268 267 266 266 268 270 271 274 278 279 278 279 280 279 279 278 277 279 283 287 287 277 264 260 263 269 278 283 289 295 297 297 298 299 297 293 289 288 289 291 292 288 282 277 274 272 270 270 274 280 288 298 304 305 308 312 316 319 285 222 211 198 176 150 132 126 124 121 119 118 117 118 118 117 115 112 104 91 73 54
286 276 270 269 270 268 265 264 264 266 267 267 268 271 273 275 276 278 280 282 281 281 281 283 284 283 273 263 262 268 274 279 282 287 293 293 293 296 298 295 291 289 289 292 293 290 282 276 274 271 271 270 271 276 281 289 299 303 305 307 312 325 336 278 202 186 164 147 137 130 125 122 119 116 115 116 118 117 116 114 108 101 93 79 60
289 285 281 277 273 269 267 266 266 267 267 266 265 266 271 274 273 272 275 278 279 280 281 281 281 279 274 270 271 276 278 278 278 283 289 291 291 294 296 294 290 289 292 295 294 287 278 273 270 267 268 269 272 276 281 288 298 302 303 304 307 330 337 188 168 155 146 140 136 131 126 122 118 116 115 115 114 113 110 107 103 101 100 93 83
294 289 285 282 278 274 272 271 270 268 267 267 266 265 270 276 275 272 272 273 275 279 282 282 279 277 277 277 278 278 276 274 275 281 287 290 292 294 297 296 292 291 295 297 293 285 275 269 266 264 265 268 271 275 279 287 295 299 300 294 285 309 181 166 153 146 143 141 139 135 130 126 121 118 116 114 112 110 106 103 102 101 96 87 73
301 296 288 280 273 269 271 274 276 274 269 266 265 263 265 271 274 273 272 272 275 278 279 279 278 277 279 281 279 277 275 274 276 281 286 291 293 295 298 298 294 295 299 298 291 283 275 268 263 262 262 265 269 273 277 284 292 296 292 274 234 176 164 158 150 147 147 146 144 140 135 130 125 119 116 114 112 109 104 99 91 80 69 58 44
305 306 301 289 276 269 269 271 273 275 273 267 263 261 260 264 269 272 272 271 272 272 272 274 276 278 281 282 279 279 279 278 281 285 289 292 294 296 300 301 297 298 301 299 289 281 275 268 262 260 260 263 268 272 275 280 287 290 282 250 207 174 163 159 154 152 153 151 148 144 139 133 127 123 121 117 114 109 102 94 82 70 59 47 40
305 310 311 305 296 289 284 280 276 274 274 269 264 262 261 264 269 271 270 269 269 270 271 274 276 278 280 278 274 277 280 280 284 289 291 292 293 296 302 304 301 302 304 299 287 280 276 270 262 259 259 263 266 268 271 275 280 284 272 233 199 177 168 165 162 160 159 157 155 150 144 137 131 130 130 127 121 115 105 95 83 70 60 49 43
303 307 311 310 306 301 297 294 290 285 280 275 271 268 267 269 271 270 267 268 270 272 275 278 279 280 281 277 270 271 274 275 280 286 289 290 292 297 304 307 304 304 306 300 287 280 278 271 262 258 258 261 264 264 266 268 273 277 265 228 198 182 176 173 171 169 167 167 166 162 155 147 143 143 144 142 134 123 107 95 81 65 54 44 39
301 304 308 308 308 306 303 300 298 295 291 287 285 282 279 277 276 273 271 272 275 276 278 280 283 284 285 282 276 274 273 271 274 281 286 288 291 297 303 307 305 305 307 302 288 281 279 272 263 258 256 259 262 261 261 263 266 269 260 230 203 189 184 183 181 177 176 178 178 176 171 163 160 163 165 166 159 143 123 104 77 57 43 32 30
299 302 305 306 306 307 304 301 298 296 293 291 290 290 287 285 282 280 279 281 283 284 284 284 285 286 287 287 284 280 277 273 273 276 282 283 285 290 298 303 303 303 306 302 288 278 277 273 264 258 255 256 259 259 257 257 258 261 256 235 210 197 193 192 190 187 186 188 190 190 189 186 184 187 192 200 208 211 227 264 328 20 23 22 24
298 300 303 305 305 306 304 299 293 291 290 288 287 287 288 288 288 287 287 286 288 289 288 287 287 287 289 290 289 287 285 283 279 277 275 274 273 281 295 304 305 305 307 304 290 276 273 271 264 258 255 254 255 257 255 252 251 252 250 238 218 204 201 200 199 197 196 197 199 200 204 205 205 208 214 222 231 242 255 268 296 344 4 15 15
298 299 301 302 303 304 303 299 294 291 289 285 282 282 284 286 288 290 290 289 289 288 287 287 288 288 289 291 292 292 291 291 291 284 278 276 275 279 290 299 304 309 314 313 299 280 271 268 264 258 254 253 253 254 254 251 247 245 243 238 225 211 208 209 207 204 205 206 206 207 212 216 217 220 226 233 241 249 257 264 279 310 342 1 2
295 296 298 299 301 303 303 299 295 291 287 284 282 280 281 284 288 291 291 289 287 286 285 286 288 288 289 290 291 291 290 291 294 290 287 289 291 294 299 299 295 303 319 323 314 293 275 267 263 257 253 253 252 252 253 250 245 240 238 235 229 219 213 214 215 213 212 212 212 212 216 220 223 227 231 238 245 249 255 261 266 280 308 339 347
293 294 294 293 294 298 299 297 293 289 284 283 282 280 279 281 286 291 290 286 284 285 286 287 287 287 288 288 289 289 287 287 287 287 290 287 279 279 284 283 278 283 303 319 319 306 286 271 263 258 253 252 253 252 252 251 246 238 233 232 230 225 220 218 220 221 219 218 218 219 221 224 226 230 234 240 245 249 253 257 260 267 282 306 327
286 287 288 288 288 292 294 292 289 286 284 285 287 287 285 283 283 285 284 282 281 281 283 285 285 285 285 285 286 286 285 283 280 281 285 282 271 265 264 266 268 269 278 294 306 307 296 279 267 261 255 252 253 254 253 252 249 241 233 230 229 227 225 223 224 226 225 223 223 224 227 229 230 233 236 240 245 249 251 254 257 261 267 279 299
281 282 283 283 286 289 288 285 282 280 282 287 289 288 287 285 282 279 278 278 280 281 281 281 283 284 283 282 281 281 280 279 277 278 280 279 273 264 259 264 267 264 265 275 287 292 294 284 270 264 260 255 253 255 256 254 251 245 236 231 229 228 227 227 229 231 230 227 227 228 230 232 234 236 238 241 246 249 251 253 256 259 263 268 277
277 280 280 280 284 289 287 282 278 276 277 282 285 284 283 283 283 281 278 277 278 280 281 282 282 283 283 282 280 278 276 275 275 277 278 277 274 269 266 268 267 260 259 268 276 279 282 281 272 265 263 260 256 256 257 256 254 249 241 235 231 229 229 228 230 234 235 232 230 230 231 233 235 238 239 241 245 250 252 253 256 259 263 266 270
271 275 276 276 279 284 282 277 277 277 276 276 278 280 280 280 280 280 281 280 279 278 279 280 281 282 283 283 282 279 276 274 273 274 276 276 275 275 274 271 263 256 262 271 274 272 269 270 274 272 266 263 261 258 258 259 257 252 245 238 234 233 231 229 230 234 238 237 235 234 234 234 236 238 240 241 245 249 252 255 255 257 260 264 268
274 275 276 275 275 275 274 272 274 276 277 277 278 279 279 277 275 275 277 279 280 279 279 279 279 279 279 280 281 280 278 275 274 273 273 273 272 273 274 271 262 260 266 268 268 270 270 270 275 276 270 265 264 262 260 259 259 256 249 242 237 236 235 231 229 232 236 239 240 239 238 238 238 240 242 243 245 247 251 254 256 257 258 261 264
278 277 278 277 276 275 275 276 277 278 278 279 279 279 278 275 273 271 272 274 277 278 279 278 278 277 276 276 276 277 277 274 272 271 271 271 270 269 270 269 263 262 265 263 263 268 270 270 272 273 269 267 269 267 262 259 258 256 252 245 240 238 237 235 232 232 234 238 241 242 242 242 243 243 244 245 245 247 249 252 255 258 259 260 262
278 279 279 279 278 277 277 278 278 279 279 279 278 278 276 274 273 272 272 273 274 275 276 276 276 275 275 274 274 275 275 273 270 268 268 268 268 267 266 265 262 261 263 263 259 257 258 262 265 265 265 267 271 269 265 259 256 255 253 248 243 240 239 238 237 235 235 237 241 243 244 245 245 246 246 247 247 248 249 251 254 256 258 260 261
281 281 280 280 280 280 280 279 279 278 278 277 277 276 276 275 274 274 274 274 274 273 273 273 273 272 271 272 273 274 274 271 268 265 264 265 267 267 265 263 260 258 259 259 256 253 255 260 263 263 266 269 270 268 266 261 256 253 252 250 246 242 241 239 238 238 238 238 240 242 244 246 247 248 248 249 250 250 251 252 254 255 257 260 261
281 281 281 280 280 280 279 279 278 277 277 276 276 276 276 275 275 275 274 274 274 273 271 270 269 269 268 268 269 270 271 270 268 265 263 262 262 264 264 264 262 259 257 256 256 257 259 262 263 264 268 271 269 266 265 262 257 253 252 252 250 246 242 240 238 237 238 239 240 241 242 244 247 249 250 250 251 253 254 255 256 257 258 260 262
282 282 282 281 281 280 280 279 278 277 277 276 275 275 275 275 274 274 274 273 272 272 270 268 265 264 264 264 265 266 267 267 266 266 264 262 261 261 262 262 262 262 261 258 257 257 258 258 259 262 267 273 275 272 267 263 260 257 253 251 249 247 245 243 241 239 238 239 241 242 242 243 245 248 250 252 253 254 256 257 258 259 260 262 264
284 283 282 281 281 280 279 278 278 277 277 276 276 275 275 274 274 273 273 272 272 270 269 266 263 260 260 260 261 262 262 263 264 265 265 264 264 264 263 261 260 260 260 261 260 259 256 253 254 255 255 257 259 261 262 262 261 258 253 249 247 248 248 247 245 244 242 242 243 245 246 246 246 247 249 251 253 255 256 258 260 262 263 264 266
285 283 282 281 280 279 277 276 276 276 276 275 275 275 274 274 274 273 272 271 271 270 268 266 263 259 257 256 257 257 257 257 259 261 262 263 265 266 265 263 261 259 258 260 261 261 257 253 252 250 245 241 241 245 252 258 259 257 254 251 248 247 248 249 248 247 246 247 247 248 249 249 248 249 250 251 253 255 257 259 261 263 265 266 268
Height
5786 5786 5787 5788 5788 5788 5789 5790 5790 5791 5792 5793 5794 5795 5797 5798 5798 5799 5799 5799 5799 5798 5798 5798 5799 5799 5800 5800 5800 5800 5799 5800 5800 5800 5800 5800 5800 5799 5799 5800 5800 5800 5800 5800 5800 5800 5800 5800 5800 5800 5799 5799 5799 5799 5799 5799 5799 5799 5799 5798 5798 5798 5797 5797 5796 5795 5795 5796 5796 5796 5796 5796 5795 5795 5795 5794 5794 5794 5794 5794 5794 5794 5793 5793 5793
5786 5786 5786 5787 5787 5787 5788 5788 5789 5790 5791 5792 5793 5794 5795 5796 5797 5797 5798 5798 5798 5798 5797 5797 5798 5798 5798 5799 5799 5799 5799 5799 5799 5799 5800 5799 5799 5799 5799 5799 5799 5799 5798 5798 5798 5798 5798 5797 5797 5797 5797 5797 5797 5797 5796 5796 5796 5796 5795 5795 5795 5795 5795 5794 5794 5793 5792 5792 5793 5793 5793 5792 5792 5792 5791 5791 5791 5791 5791 5791 5791 5791 5791 5790 5790
5786 5785 5785 5785 5786 5786 5786 5787 5788 5789 5790 5791 5792 5793 5794 5795 5795 5796 5796 5797 5797 5797 5797 5797 5797 5797 5797 5797 5798 5798 5798 5798 5798 5798 5798 5798 5798 5798 5798 5798 5798 5798 5797 5797 5797 5796 5796 5796 5796 5796 5796 5795 5795 5794 5794 5794 5793 5793 5793 5792 5792 5792 5791 5791 5790 5790 5789 5789 5790 5790 5790 5790 5789 5789 5789 5788 5788 5788 5788 5788 5787 5787 5787 5787 5787
5785 5785 5784 5784 5784 5785 5785 5786 5787 5788 5789 5790 5790 5791 5793 5793 5794 5794 5795 5796 5796 5796 5796 5796 5796 5796 5796 5796 5796 5797 5797 5797 5797 5797 5797 5796 5796 5796 5796 5797 5796 5796 5796 5796 5795 5795 5795 5795 5795 5795 5794 5794 5793 5793 5792 5791 5791 5791 5790 5790 5789 5789 5788 5788 5787 5787 5786 5785 5785 5786 5786 5787 5786 5786 5786 5785 5785 5785 5785 5784 5784 5784 5784 5784 5784
5785 5784 5783 5782 5782 5783 5784 5785 5786 5787 5788 5788 5789 5790 5791 5792 5793 5793 5793 5794 5794 5795 5795 5795 5795 5795 5795 5795 5795 5796 5796 5796 5796 5796 5795 5795 5795 5795 5795 5795 5795 5795 5795 5795 5794 5794 5794 5794 5793 5793 5792 5792 5791 5790 5790 5789 5788 5788 5787 5787 5786 5786 5785 5784 5784 5783 5783 5782 5781 5781 5782 5782 5783 5783 5782 5782 5782 5782 5781 5781 5781 5781 5781 5781 5781
5784 5783 5782 5782 5781 5781 5782 5784 5785 5786 5787 5788 5788 5789 5790 5791 5792 5792 5792 5793 5793 5793 5794 5794 5794 5794 5794 5794 5794 5795 5795 5795 5795 5794 5794 5794 5794 5794 5794 5794 5794 5794 5794 5794 5793 5793 5792 5792 5791 5791 5790 5789 5789 5788 5787 5786 5785 5785 5784 5784 5783 5783 5782 5782 5781 5780 5779 5779 5778 5778 5778 5778 5779 5779 5779 5779 5779 5779 5778 5778 5778 5778 5777 5777 5777
5784 5783 5782 5782 5781 5780 5781 5782 5783 5785 5786 5787 5788 5788 5789 5790 5791 5791 5791 5792 5792 5792 5793 5793 5793 5793 5793 5793 5793 5793 5793 5793 5793 5793 5793 5793 5793 5793 5793 5793 5793 5793 5793 5792 5792 5791 5791 5790 5789 5789 5788 5787 5786 5785 5784 5784 5783 5782 5782 5781 5781 5780 5779 5779 5778 5777 5776 5775 5775 5775 5775 5775 5775 5775 5775 5775 5775 5775 5774 5774 5775 5774 5774 5774 5774
5784 5783 5783 5782 5781 5781 5780 5781 5782 5784 5785 5787 5787 5788 5788 5789 5790 5790 5790 5791 5791 5792 5792 5791 5791 5791 5791 5791 5791 5791 5791 5791 5792 5792 5792 5792 5792 5792 5792 5792 5792 5791 5791 5790 5790 5789 5788 5788 5787 5786 5785 5785 5784 5783 5782 5781 5781 5780 5779 5779 5778 5777 5776 5775 5774 5774 5773 5772 5772 5772 5771 5771 5771 5771 5771 5771 5771 5771 5770 5770 5771 5770 5770 5771 5771
5785 5784 5783 5783 5782 5781 5781 5781 5782 5783 5785 5786 5787 5788 5788 5789 5789 5789 5790 5790 5791 5791 5791 5791 5790 5790 5790 5790 5790 5790 5790 5790 5790 5790 5790 5790 5790 5790 5790 5790 5789 5789 5788 5787 5787 5786 5786 5785 5784 5783 5782 5781 5781 5780 5779 5779 5778 5777 5777 5776 5775 5774 5774 5773 5772 5771 5770 5769 5769 5769 5769 5768 5767 5767 5767 5767 5766 5766 5766 5766 5767 5767 5767 5767 5767
5786 5785 5784 5783 5783 5782 5782 5782 5782 5783 5784 5785 5786 5787 5788 5789 5789 5789 5789 5790 5790 5790 5790 5790 5789 5789 5789 5789 5789 5788 5788 5788 5788 5787 5787 5787 5787 5787 5787 5787 5787 5786 5785 5784 5784 5783 5782 5782 5781 5780 5779 5778 5777 5777 5776 5775 5775 5774 5773 5773 5772 5771 5770 5770 5769 5768 5767 5767 5766 5766 5766 5765 5764 5764 5764 5764 5763 5761 5762 5762 5763 5763 5763 5764 5764
5786 5786 5785 5784 5784 5783 5782 5783 5783 5784 5784 5785 5786 5787 5787 5788 5788 5789 5789 5789 5789 5789 5789 5789 5788 5788 5788 5787 5787 5787 5787 5786 5786 5785 5785 5784 5785 5785 5785 5784 5784 5783 5782 5781 5780 5780 5779 5778 5778 5777 5775 5774 5774 5773 5773 5772 5771 5770 5770 5769 5768 5768 5767 5766 5765 5765 5764 5763 5763 5763 5763 5762 5762 5761 5761 5761 5759 5758 5758 5759 5759 5759 5760 5760 5761
5787 5786 5786 5785 5785 5784 5784 5784 5784 5784 5785 5785 5786 5786 5787 5787 5788 5788 5788 5788 5788 5788 5788 5787 5787 5786 5786 5785 5785 5785 5784 5784 5784 5783 5782 5782 5782 5782 5782 5782 5781 5781 5780 5778 5777 5777 5776 5776 5775 5774 5772 5771 5771 5770 5769 5768 5768 5767 5767 5766 5765 5765 5764 5763 5762 5761 5760 5760 5759 5759 5759 5759 5759 5758 5758 5758 5756 5755 5754 5755 5755 5756 5757 5758 5758
5787 5787 5786 5786 5785 5785 5785 5784 5784 5784 5785 5785 5786 5786 5787 5787 5787 5787 5787 5787 5787 5786 5786 5786 5786 5785 5784 5784 5784 5783 5783 5782 5782 5781 5781 5780 5780 5780 5780 5779 5778 5778 5777 5776 5775 5775 5774 5773 5772 5771 5769 5769 5768 5767 5766 5766 5765 5764 5764 5763 5763 5762 5761 5760 5759 5758 5757 5756 5755 5755 5755 5755 5754 5754 5754 5754 5753 5751 5751 5752 5752 5752 5753 5755 5755
5787 5787 5786 5786 5786 5786 5785 5785 5785 5784 5785 5785 5785 5786 5786 5786 5786 5786 5786 5786 5785 5785 5785 5784 5784 5783 5783 5783 5782 5782 5781 5781 5780 5779 5779 5779 5778 5778 5778 5777 5776 5775 5775 5774 5774 5773 5772 5771 5770 5768 5767 5766 5766 5765 5764 5763 5762 5762 5761 5761 5760 5759 5758 5757 5756 5755 5753 5752 5752 5751 5751 5750 5750 5749 5750 5750 5749 5748 5748 5750 5749 5748 5750 5751 5752
5787 5787 5786 5786 5785 5785 5785 5785 5785 5785 5784 5785 5785 5785 5785 5785 5785 5785 5785 5784 5784 5783 5783 5782 5782 5782 5781 5781 5781 5780 5780 5779 5779 5778 5777 5777 5777 5776 5776 5775 5774 5773 5772 5772 5772 5771 5769 5768 5767 5766 5765 5764 5763 5762 5761 5760 5760 5759 5759 5758 5757 5756 5755 5754 5753 5751 5750 5749 5748 5747 5746 5746 5745 5745 5745 5746 5746 5745 5745 5746 5747 5746 5747 5749 5750
5787 5787 5786 5786 5785 5785 5785 5785 5785 5784 5784 5784 5784 5784 5784 5784 5784 5783 5783 5783 5782 5781 5781 5780 5780 5780 5780 5779 5779 5779 5779 5778 5777 5776 5776 5775 5775 5775 5774 5773 5772 5771 5770 5770 5769 5768 5767 5766 5765 5764 5762 5761 5760 5759 5759 5758 5758 5757 5756 5755 5755 5754 5753 5751 5750 5748 5747 5745 5744 5743 5742 5742 5742 5741 5741 5742 5742 5742 5742 5743 5744 5745 5746 5746 5747
5787 5786 5786 5785 5785 5785 5784 5784 5783 5783 5783 5783 5783 5783 5783 5783 5782 5782 5782 5781 5780 5780 5779 5779 5778 5778 5778 5778 5778 5777 5777 5776 5776 5775 5774 5774 5773 5773 5772 5771 5770 5769 5769 5768 5767 5766 5765 5764 5763 5761 5760 5758 5757 5756 5756 5756 5756 5755 5754 5753 5752 5751 5750 5749 5747 5745 5744 5742 5741 5740 5739 5739 5738 5738 5738 5738 5739 5740 5740 5740 5742 5743 5744 5745 5745
5786 5786 5785 5785 5785 5784 5784 5783 5783 5782 5782 5782 5782 5782 5781 5781 5781 5780 5780 5779 5778 5778 5777 5777 5776 5776 5776 5776 5775 5775 5775 5775 5774 5773 5773 5772 5771 5771 5770 5769 5768 5767 5767 5766 5765 5763 5762 5761 5760 5758 5757 5756 5755 5754 5754 5754 5754 5753 5752 5751 5750 5749 5748 5746 5745 5743 5741 5740 5739 5738 5737 5736 5736 5736 5736 5736 5737 5737 5738 5739 5740 5741 5742 5743 5743
5786 5785 5785 5784 5784 5783 5783 5783 5782 5782 5781 5781 5780 5780 5779 5779 5778 5778 5777 5777 5777 5776 5775 5775 5774 5774 5774 5774 5773 5773 5773 5773 5772 5771 5771 5770 5770 5769 5768 5767 5766 5765 5764 5763 5762 5761 5760 5759 5757 5755 5754 5753 5752 5752 5752 5752 5752 5751 5750 5749 5748 5747 5746 5744 5742 5741 5739 5738 5737 5736 5735 5735 5734 5734 5735 5735 5735 5736 5737 5738 5739 5740 5741 5741 5742
5785 5784 5784 5783 5783 5783 5782 5782 5781 5781 5780 5779 5779 5778 5778 5777 5776 5776 5775 5775 5775 5774 5773 5773 5772 5772 5772 5772 5772 5771 5771 5770 5770 5769 5768 5768 5767 5767 5766 5765 5764 5763 5762 5761 5760 5759 5758 5757 5755 5753 5752 5751 5751 5751 5751 5751 5750 5749 5748 5747 5746 5745 5744 5742 5740 5739 5738 5737 5736 5735 5734 5734 5734 5734 5734 5734 5735 5736 5737 5738 5738 5739 5740 5740 5740
5784 5783 5783 5782 5782 5781 5781 5781 5780 5779 5779 5778 5777 5777 5776 5775 5775 5774 5774 5773 5773 5772 5772 5771 5771 5771 5770 5770 5770 5769 5768 5768 5767 5766 5766 5765 5764 5764 5763 5763 5762 5761 5760 5758 5757 5757 5756 5754 5752 5751 5750 5749 5749 5749 5749 5749 5748 5747 5747 5745 5744 5743 5741 5740 5738 5737 5736 5736 5735 5734 5734 5733 5733 5733 5734 5734 5735 5735 5736 5737 5738 5738 5739 5739 5740
5782 5782 5781 5780 5780 5779 5779 5779 5778 5778 5777 5776 5776 5775 5774 5774 5773 5772 5772 5771 5770 5770 5770 5769 5769 5769 5768 5768 5768 5767 5766 5765 5765 5764 5763 5762 5762 5761 5761 5760 5760 5759 5758 5756 5755 5755 5753 5752 5750 5749 5748 5748 5748 5748 5748 5747 5746 5746 5745 5744 5742 5741 5739 5738 5737 5736 5736 5735 5734 5734 5734 5734 5734 5734 5734 5734 5735 5735 5736 5737 5738 5738 5739 5739 5739
5780 5780 5779 5778 5778 5777 5777 5776 5776 5775 5774 5774 5773 5773 5772 5771 5771 5770 5770 5769 5768 5768 5768 5767 5767 5766 5766 5766 5765 5765 5764 5763 5763 5762 5761 5760 5759 5759 5758 5758 5757 5757 5756 5755 5753 5752 5751 5750 5748 5747 5747 5747 5747 5747 5746 5746 5745 5744 5744 5742 5741 5739 5738 5737 5736 5735 5735 5735 5734 5734 5734 5734 5734 5734 5734 5735 5735 5736 5737 5738 5738 5739 5739 5739 5740
5778 5777 5776 5776 5775 5775 5775 5774 5773 5772 5771 5771 5770 5770 5769 5769 5768 5768 5767 5767 5766 5766 5766 5765 5765 5764 5763 5763 5763 5762 5762 5761 5761 5760 5758 5758 5757 5756 5755 5755 5755 5754 5754 5753 5751 5750 5749 5747 5746 5746 5746 5746 5746 5745 5745 5744 5744 5743 5742 5741 5740 5738 5737 5736 5735 5735 5735 5735 5734 5734 5735 5735 5735 5735 5735 5736 5737 5737 5738 5739 5739 5740 5740 5740 5740
5775 5774 5774 5773 5773 5773 5772 5772 5771 5770 5769 5769 5768 5767 5767 5766 5766 5766 5765 5765 5764 5764 5763 5763 5762 5761 5761 5760 5760 5760 5760 5759 5759 5757 5756 5755 5754 5753 5753 5753 5752 5752 5751 5751 5750 5748 5746 5745 5744 5744 5744 5745 5744 5744 5744 5743 5742 5742 5741 5740 5738 5737 5736 5735 5735 5735 5735 5735 5735 5735 5736 5736 5736 5737 5737 5738 5738 5739 5739 5740 5740 5740 5741 5741 5740
5773 5772 5771 5770 5770 5770 5770 5769 5769 5768 5767 5767 5766 5765 5765 5764 5763 5763 5763 5763 5762 5762 5761 5761 5760 5759 5758 5758 5758 5758 5757 5757 5756 5755 5754 5753 5752 5751 5750 5750 5750 5749 5749 5749 5747 5746 5745 5743 5743 5743 5743 5743 5743 5743 5742 5742 5741 5741 5740 5739 5738 5736 5735 5735 5734 5735 5735 5735 5735 5736 5737 5737 5738 5738 5739 5739 5739 5740 5740 5741 5741 5741 5741 5741 5741
5770 5770 5769 5768 5767 5767 5766 5766 5766 5765 5765 5764 5764 5763 5762 5762 5761 5761 5760 5760 5760 5760 5759 5759 5758 5757 5756 5756 5756 5756 5755 5755 5754 5753 5752 5751 5750 5749 5748 5748 5747 5747 5747 5746 5745 5744 5743 5742 5742 5742 5742 5742 5742 5742 5741 5741 5740 5740 5739 5738 5737 5736 5735 5734 5734 5735 5735 5736 5736 5737 5738 5738 5739 5739 5740 5740 5740 5741 5741 5741 5741 5741 5741 5741 5741
5768 5768 5767 5766 5765 5764 5763 5763 5763 5763 5762 5762 5762 5761 5760 5760 5759 5759 5758 5758 5757 5757 5757 5756 5756 5755 5755 5754 5754 5753 5753 5752 5752 5751 5750 5748 5748 5747 5746 5745 5745 5745 5745 5744 5743 5742 5741 5741 5740 5740 5741 5741 5741 5740 5740 5740 5740 5739 5738 5737 5736 5736 5735 5734 5734 5735 5736 5737 5738 5738 5739 5739 5740 5740 5740 5741 5741 5741 5741 5741 5741 5741 5741 5741 5741
5767 5766 5765 5764 5763 5762 5761 5761 5760 5760 5760 5759 5759 5759 5758 5758 5757 5757 5756 5755 5755 5755 5755 5754 5753 5753 5752 5752 5752 5751 5750 5750 5750 5749 5748 5747 5746 5745 5744 5743 5743 5743 5743 5742 5741 5740 5740 5739 5739 5739 5739 5739 5739 5739 5739 5739 5739 5738 5738 5737 5736 5735 5735 5735 5735 5736 5737 5738 5739 5739 5740 5740 5740 5741 5741 5741 5741 5741 5741 5741 5742 5742 5741 5741 5741
5765 5764 5763 5762 5762 5761 5760 5759 5758 5758 5757 5757 5757 5757 5756 5756 5755 5754 5754 5753 5753 5753 5752 5751 5751 5750 5750 5750 5750 5749 5748 5747 5747 5746 5746 5745 5744 5743 5742 5742 5741 5741 5741 5740 5739 5738 5738 5738 5738 5738 5738 5738 5738 5738 5738 5738 5738 5737 5737 5737 5736 5735 5735 5735 5736 5737 5738 5739 5740 5740 5740 5741 5741 5741 5741 5741 5741 5741 5742 5742 5742 5742 5741 5741 5741
5763 5763 5761 5760 5759 5759 5758 5757 5756 5755 5755 5755 5755 5755 5754 5754 5753 5753 5752 5751 5751 5750 5749 5749 5748 5747 5747 5748 5748 5747 5746 5745 5744 5744 5743 5743 5742 5741 5741 5740 5739 5739 5739 5738 5737 5737 5737 5736 5736 5737 5737 5737 5737 5737 5737 5737 5737 5737 5736 5736 5736 5736 5735 5736 5737 5738 5738 5739 5740 5740 5741 5741 5741 5741 5742 5742 5742 5742 5742 5742 5742 5742 5742 5742 5742
5760 5760 5760 5758 5757 5756 5756 5755 5754 5753 5753 5752 5752 5752 5752 5751 5751 5751 5750 5749 5748 5748 5747 5746 5746 5745 5745 5745 5745 5744 5744 5743 5742 5741 5741 5741 5740 5740 5739 5739 5738 5737 5737 5737 5736 5735 5735 5735 5735 5735 5736 5736 5736 5736 5736 5736 5736 5736 5736 5736 5736 5736 5736 5736 5737 5738 5739 5739 5740 5741 5741 5741 5741 5742 5742 5742 5742 5742 5743 5743 5742 5742 5742 5742 5742
5757 5757 5757 5757 5755 5754 5754 5753 5752 5751 5750 5750 5750 5750 5749 5749 5749 5748 5748 5747 5746 5746 5745 5744 5744 5743 5742 5742 5742 5742 5741 5740 5740 5739 5739 5739 5738 5738 5737 5737 5737 5736 5736 5735 5735 5734 5734 5734 5734 5734 5735 5735 5735 5735 5736 5736 5736 5735 5735 5736 5736 5736 5736 5736 5737 5738 5738 5739 5740 5740 5741 5741 5742 5742 5742 5742 5743 5743 5743 5743 5743 5742 5742 5742 5742
5754 5754 5754 5755 5754 5753 5752 5751 5750 5749 5749 5748 5748 5747 5747 5746 5746 5746 5746 5745 5745 5744 5743 5742 5742 5741 5740 5740 5740 5739 5739 5738 5738 5737 5737 5737 5737 5736 5735 5735 5735 5735 5734 5734 5733 5733 5733 5733 5733 5733 5733 5734 5734 5734 5734 5735 5735 5735 5735 5735 5735 5736 5736 5736 5737 5738 5738 5739 5740 5740 5741 5741 5742 5742 5742 5743 5743 5743 5743 5743 5743 5742 5742 5742 5742
5752 5752 5752 5751 5752 5752 5751 5750 5749 5748 5747 5746 5746 5745 5745 5744 5744 5744 5743 5743 5742 5742 5741 5740 5740 5739 5738 5738 5737 5737 5737 5737 5736 5735 5735 5735 5735 5734 5733 5733 5733 5733 5732 5732 5732 5732 5732 5732 5732 5732 5732 5732 5733 5733 5733 5733 5734 5734 5734 5734 5735 5735 5736 5736 5737 5737 5738 5739 5739 5740 5740 5741 5741 5742 5742 5743 5743 5743 5743 5743 5743 5742 5742 5742 5742
5750 5750 5749 5748 5748 5749 5749 5748 5747 5746 5745 5745 5744 5743 5743 5742 5742 5741 5741 5741 5740 5740 5739 5738 5738 5737 5737 5736 5736 5735 5735 5735 5734 5733 5732 5732 5732 5732 5732 5731 5731 5731 5731 5730 5730 5730 5730 5731 5731 5731 5731 5731 5731 5731 5732 5732 5733 5733 5733 5733 5734 5735 5735 5736 5736 5737 5737 5738 5739 5739 5740 5740 5741 5742 5742 5742 5742 5743 5743 5743 5742 5742 5742 5742 5741
5748 5748 5747 5746 5745 5745 5745 5745 5744 5744 5743 5743 5742 5741 5741 5740 5739 5739 5739 5738 5738 5737 5736 5736 5735 5735 5735 5734 5734 5733 5733 5733 5733 5732 5731 5730 5730 5730 5730 5730 5730 5729 5729 5729 5729 5729 5729 5729 5729 5729 5729 5729 5729 5730 5730 5730 5731 5732 5732 5732 5733 5734 5734 5735 5736 5736 5737 5737 5738 5738 5739 5740 5740 5741 5741 5742 5742 5742 5742 5742 5742 5742 5742 5741 5741
5746 5745 5745 5745 5744 5742 5741 5741 5741 5741 5740 5740 5739 5739 5738 5737 5737 5737 5736 5736 5735 5734 5733 5733 5733 5732 5732 5732 5732 5731 5731 5731 5731 5731 5730 5729 5729 5729 5729 5729 5728 5728 5728 5727 5727 5727 5727 5727 5728 5728 5728 5728 5728 5728 5728 5729 5729 5730 5731 5731 5732 5732 5733 5734 5735 5735 5736 5736 5737 5737 5738 5738 5739 5740 5740 5741 5741 5741 5742 5742 5741 5741 5741 5741 5740
5744 5743 5743 5742 5742 5740 5739 5738 5737 5737 5737 5736 5736 5735 5735 5735 5734 5734 5734 5733 5732 5731 5731 5730 5730 5729 5729 5729 5729 5729 5729 5729 5729 5729 5729 5728 5727 5728 5728 5727 5726 5726 5726 5726 5726 5726 5725 5726 5726 5726 5726 5726 5726 5726 5726 5727 5727 5728 5729 5730 5730 5731 5732 5733 5733 5734 5735 5735 5736 5736 5736 5737 5738 5739 5739 5739 5740 5740 5740 5741 5741 5741 5740 5740 5740
5740 5739 5739 5738 5738 5737 5737 5735 5734 5733 5733 5733 5733 5732 5732 5731 5731 5731 5731 5730 5729 5728 5728 5727 5727 5726 5726 5726 5726 5726 5726 5726 5726 5726 5727 5726 5725 5725 5726 5723 5722 5724 5724 5724 5724 5724 5724 5724 5724 5724 5724 5724 5724 5724 5724 5725 5725 5726 5727 5728 5728 5729 5730 5731 5732 5733 5733 5734 5735 5735 5735 5736 5736 5737 5738 5738 5738 5739 5739 5739 5739 5739 5740 5739 5739
5736 5736 5735 5734 5734 5733 5733 5732 5731 5730 5729 5729 5729 5729 5728 5727 5728 5727 5727 5726 5726 5725 5725 5725 5724 5723 5723 5723 5723 5723 5723 5723 5722 5722 5723 5723 5723 5723 5722 5720 5719 5721 5721 5721 5722 5722 5722 5722 5722 5722 5723 5723 5722 5722 5722 5723 5723 5724 5724 5725 5726 5727 5728 5729 5730 5731 5732 5733 5733 5734 5734 5734 5735 5736 5736 5737 5737 5737 5737 5738 5738 5738 5738 5738 5738
5732 5731 5731 5730 5729 5729 5728 5726 5726 5725 5725 5725 5725 5724 5724 5723 5723 5722 5722 5722 5723 5722 5722 5722 5721 5720 5720 5719 5719 5719 5719 5719 5719 5719 5719 5719 5719 5719 5719 5718 5717 5717 5718 5718 5719 5719 5719 5720 5720 5720 5720 5721 5721 5720 5720 5721 5721 5721 5722 5723 5724 5725 5726 5727 5728 5729 5730 5731 5731 5732 5732 5733 5733 5734 5734 5735 5735 5735 5735 5736 5736 5736 5736 5737 5737
5727 5726 5726 5725 5724 5724 5723 5722 5720 5719 5719 5720 5720 5720 5719 5719 5718 5718 5717 5717 5718 5718 5718 5718 5718 5717 5716 5715 5715 5715 5716 5716 5716 5716 5715 5715 5715 5715 5715 5715 5715 5715 5715 5716 5715 5715 5716 5717 5717 5717 5718 5718 5718 5719 5718 5718 5719 5719 5720 5720 5721 5722 5723 5725 5726 5727 5728 5729 5729 5730 5730 5731 5731 5732 5732 5733 5733 5733 5733 5734 5734 5734 5735 5735 5735
5721 5721 5720 5720 5719 5718 5717 5717 5715 5714 5713 5713 5714 5714 5714 5714 5714 5713 5713 5712 5713 5713 5714 5714 5713 5712 5712 5711 5711 5711 5711 5712 5712 5712 5712 5711 5711 5710 5711 5711 5712 5712 5713 5713 5712 5712 5713 5714 5714 5715 5715 5715 5716 5716 5716 5716 5716 5717 5717 5718 5719 5720 5721 5722 5723 5725 5725 5726 5727 5728 5728 5729 5729 5730 5730 5731 5731 5731 5731 5731 5732 5732 5732 5733 5733
5714 5714 5713 5713 5712 5712 5711 5710 5709 5708 5708 5707 5707 5707 5708 5708 5708 5708 5708 5708 5708 5708 5708 5708 5708 5708 5707 5707 5706 5706 5706 5707 5707 5708 5708 5707 5707 5707 5707 5707 5708 5709 5709 5710 5710 5709 5709 5709 5710 5711 5712 5712 5712 5713 5713 5714 5714 5714 5714 5715 5716 5717 5718 5719 5720 5722 5723 5724 5724 5725 5726 5727 5727 5728 5728 5729 5729 5729 5729 5729 5729 5730 5730 5730 5731
5708 5707 5706 5706 5705 5705 5704 5703 5703 5702 5701 5700 5700 5700 5701 5701 5702 5702 5703 5702 5702 5703 5703 5703 5703 5703 5702 5701 5701 5702 5701 5701 5702 5703 5703 5703 5703 5703 5703 5703 5704 5705 5705 5706 5706 5706 5705 5705 5706 5707 5708 5708 5709 5709 5709 5710 5711 5711 5712 5712 5713 5714 5715 5716 5717 5718 5719 5720 5722 5723 5723 5724 5724 5725 5726 5726 5726 5727 5727 5727 5727 5728 5728 5728 5728
5702 5701 5700 5699 5699 5698 5697 5696 5696 5695 5695 5694 5693 5693 5693 5693 5694 5694 5695 5695 5696 5696 5697 5698 5698 5698 5697 5696 5696 5697 5696 5696 5697 5698 5698 5698 5698 5698 5699 5699 5700 5700 5701 5701 5701 5701 5701 5701 5702 5703 5703 5705 5706 5706 5706 5706 5707 5707 5708 5710 5711 5712 5712 5713 5714 5715 5716 5717 5718 5719 5720 5721 5722 5722 5723 5723 5724 5724 5724 5725 5725 5725 5725 5725 5726
5696 5695 5694 5693 5692 5691 5690 5689 5689 5688 5688 5687 5686 5686 5685 5685 5685 5685 5686 5687 5688 5689 5690 5691 5692 5692 5692 5691 5691 5691 5691 5691 5692 5693 5693 5693 5693 5694 5695 5695 5696 5696 5696 5696 5697 5697 5697 5698 5698 5699 5700 5701 5702 5703 5703 5702 5702 5703 5705 5707 5708 5708 5709 5710 5711 5712 5713 5713 5714 5715 5717 5718 5719 5719 5720 5720 5721 5721 5722 5722 5722 5723 5723 5723 5723
5690 5689 5688 5687 5686 5685 5684 5683 5681 5681 5680 5680 5680 5679 5678 5677 5677 5677 5678 5679 5680 5681 5682 5683 5684 5685 5686 5686 5686 5685 5685 5686 5687 5688 5688 5688 5688 5689 5690 5691 5692 5692 5692 5693 5693 5693 5694 5694 5694 5695 5697 5698 5700 5700 5699 5698 5699 5700 5701 5703 5703 5704 5705 5706 5707 5709 5709 5710 5710 5711 5712 5714 5715 5716 5717 5717 5718 5718 5719 5719 5719 5720 5720 5720 5720
5683 5682 5681 5680 5679 5678 5676 5675 5674 5673 5672 5672 5672 5671 5671 5670 5670 5670 5670 5670 5671 5673 5675 5676 5677 5678 5678 5679 5680 5680 5680 5680 5682 5682 5683 5683 5684 5684 5685 5686 5687 5688 5689 5689 5690 5690 5691 5690 5690 5692 5694 5696 5697 5697 5696 5694 5695 5697 5697 5697 5698 5699 5700 5702 5704 5706 5706 5707 5707 5707 5708 5710 5711 5712 5713 5714 5714 5715 5715 5716 5716 5717 5717 5717 5717
5673 5673 5672 5671 5670 5669 5667 5667 5666 5665 5664 5664 5663 5663 5663 5662 5662 5662 5662 5662 5663 5664 5666 5667 5669 5670 5671 5672 5673 5673 5673 5675 5677 5677 5677 5678 5679 5679 5680 5681 5682 5683 5684 5685 5686 5686 5687 5687 5687 5688 5689 5690 5691 5692 5691 5691 5692 5693 5693 5693 5694 5695 5696 5698 5700 5702 5703 5704 5704 5704 5704 5705 5707 5708 5709 5709 5710 5711 5712 5712 5713 5713 5713 5714 5714